Погода в Силистре

Болгария     44°07′03″N   27°16′23″E
темп.,
°C
ветер,
м/с
пор.,
м/с
влажн.,
%
обл.,
%
осадки,
мм/ч
давл.,
гПа
погр.,
м
22 января, сб
сб2223:00−1з612636 0.0 1019440
02:00−2з586647 0.0 1019295
05:00−3зюз48655 0.0 1018256
08:00−4зюз597563 0.0 1018299
11:000з565340 0.0 1017864
14:00+1зсз444129 0.0 10161260
17:00−1сз23447 0.0 101621
20:00−3сз36577 0.0 1018119
23 января, вс
вс2323:00−3ссз37555 0.0 1020174
02:00−3сз3757100 0.0 1020186
05:00−3ссз25615 0.0 1021170
08:00−4сз236915 0.0 102369
11:000сз484723 0.0 10221270
14:000сз5747100 0.0 10211385
17:00−1ссз2353100 0.0 102276
20:00−3с4965100 0.1 1024648
24 января, пн
пн2423:00−4ссв61188100 0.1 1026582
02:00−5ссв6108498 0.2 1027556
05:00−5с61289100 0.2 1028696
08:00−6с61277100 0.4 1031738
11:00−4с71061100 0.0 1032937
14:00−2с71053100 0.0 10311103
17:00−3с61058100 0.0 1032862
20:00−4ссв5880100 0.0 1032455
25 января, вт
вт2523:00−4с2483100 0.0 1032319
02:00−3сз4776100 0.1 1031633
05:00−4ссв2491100 0.2 1031318
08:00−5ссв3586100 0.4 1031382
11:00−3с3467100 0.1 1031691
14:00−2ссз4560100 0.1 10291040
17:00−2сз2466100 0.0 1028425
20:00−2зсз2458100 0.0 1028123
26 января, ср
ср2623:00−3з376199 0.0 1027202
02:00−4з5116726 0.0 1025326
05:00−5з61273100 0.0 1024372
08:00−4з61166100 0.0 1024400
11:00−1зсз6851100 0.0 1024523
14:00+1з564485 0.0 1023581
17:00−1зсз355783 0.0 102484
20:00−2зсз346294 0.0 102554